User: anonymous   Login
Location: Theydon Bois
(51.6750°N, 0.1050°E)
Time: 20:57:05
(UTC+01:00)
Language:

ERS-1 Rocket - Orbit

View from above orbital plane
View from above orbital plane
View from above satellite
View from above satellite

Ground track
Ground track

The orbit data is extracted from the following two-line orbital elements,

1 21610U 91050F   17293.38507235  .00000043  00000-0  27348-4 0  9995
2 21610  98.5907 350.6174 0002089 296.6564 121.4968 14.40813511378145
Epoch (UTC): 20 October 2017 09:14:30
Eccentricity: 0.0002089
inclination: 98.5907°
perigee height: 754 km
apogee height: 757 km
right ascension of ascending node: 350.6174°
argument of perigee: 296.6564°
revolutions per day: 14.40813511
mean anomaly at epoch: 121.4968°
orbit number at epoch: 37814

The dashed part of the orbit path shows where the satellite is in the earth's shadow,  

DLR